Regional Weather Roundup
Issued by NWS

Home | Current Version | Previous Version | Graphics & Text | Print | Product List | Glossary On
Versions: 1 2 3 4 5 6 7 8 9 10 11 12 13 14 15 16 17 18 19 20 21 22 23 24 25 26 27 28 29 30 31 32 33 34 35 36 37 38 39 40 41 42 43 44 45 46 47 48 49 50
000
ASUS45 KCYS 181010
RWRWY

WYOMING REGIONAL WEATHER ROUNDUP
NATIONAL WEATHER SERVICE CHEYENNE WY
300 AM MST WED JAN 18 2017

NOTE:  "FAIR" INDICATES FEW OR NO CLOUDS BELOW 12,000 FEET
WITH NO SIGNIFICANT WEATHER AND/OR OBSTRUCTIONS TO VISIBILITY.

WYZ001-181100-
YELLOWSTONE NATIONAL PARK

CITY           SKY/WX    TMP DP  RH WIND       PRES   REMARKS
LK YELLOWSTONE   N/A     -6  -9  86 CALM      30.08F
W YELLOWSTONE  NOT AVBL

$$
WYZ002>013-054>058-071-098>099-181100-
NORTHERN WYOMING

CITY           SKY/WX    TMP DP  RH WIND       PRES   REMARKS
JACKSON        FAIR      -9 -13  84 E3        30.14F
CODY           FAIR      14   8  77 VRB3      29.87F
GREYBULL       FAIR      -3  -7  82 CALM      29.94F
WORLAND        FAIR       1  -1  91 S9        29.92F WCI -14
SHERIDAN       FAIR      20  14  77 NW12      29.79F WCI   8
BUFFALO        FAIR      31  18  58 S13       29.84F WCI  21
GILLETTE       FAIR      35  17  47 SW23      29.85F WCI  23
HULETT         FAIR      30  19  64 S10       29.85F WCI  21
NEWCASTLE      FAIR      23  14  68 E3        29.93S

$$
WYZ014>020-022>026-101>103-181100-
CENTRAL WYOMING

CITY           SKY/WX    TMP DP  RH WIND       PRES   REMARKS
BIG PINEY      FAIR     -14 -19  79 CALM      30.11F
PINEDALE       FAIR      -9 -17  70 W3        30.10F
DUBOIS         NOT AVBL
LANDER         FAIR       7   4  87 W7        29.99F WCI  -5
RIVERTON       FAIR       3   1  91 CALM      30.01F
CASPER         FAIR      31  11  43 SW26G44   29.95F WCI  17
DOUGLAS        FAIR      17  11  77 E3        29.95F

$$
WYZ021-027>030-104>119-181100-
SOUTHERN WYOMING

CITY           SKY/WX    TMP DP  RH WIND       PRES   REMARKS
EVANSTON       FAIR      16   6  65 SW3       30.09F
ROCK SPRINGS   FAIR      -2  -6  83 CALM      30.11F
RAWLINS        FAIR      12   6  77 SW3       30.10F
LARAMIE        FAIR       2  -1  88 NW7       30.03F WCI -11
CHEYENNE       FAIR      23  12  62 W8        29.97S WCI  14
TORRINGTON     FAIR      22  13  68 CALM      29.95F

$$



USA.gov is the U.S. government's official web portal to all federal, state and local government web resources and services.